| time (UTC) | temp C | wind direction | speed KPH | gust KPH | rain 1hr cm | rain 24hr cm | rain mn cm | humidity % | barometer mb |
| 20260506051006 | 5 | 298 | 0.0 | 3.2 | 0.00 | 0.00 | 0.00 | 58 | 1011.6 |
| 20260506045007 | 5 | 298 | 0.0 | 1.6 | 0.00 | 0.00 | 0.00 | 57 | 1011.4 |
| 20260506044506 | 5 | 298 | 0.0 | 1.6 | 0.00 | 0.00 | 0.00 | 57 | 1011.4 |
| 20260506044007 | 5 | 298 | 0.0 | 0.0 | 0.00 | 0.00 | 0.00 | 57 | 1011.4 |
| 20260506043506 | 5 | 298 | 0.0 | 3.2 | 0.00 | 0.00 | 0.00 | 56 | 1011.4 |
| 20260506043006 | 5 | 298 | 0.0 | 4.8 | 0.00 | 0.00 | 0.00 | 56 | 1011.4 |
| 20260506042506 | 5 | 298 | 1.6 | 4.8 | 0.00 | 0.00 | 0.00 | 55 | 1011.3 |
| 20260506041506 | 5 | 292 | 1.6 | 3.2 | 0.00 | 0.00 | 0.00 | 54 | 1011.3 |
| 20260506040506 | 6 | 287 | 1.6 | 4.8 | 0.00 | 0.00 | 0.00 | 54 | 1011.2 |
| 20260506040006 | 6 | 308 | 1.6 | 4.8 | 0.00 | 0.00 | 0.00 | 53 | 1011.2 |
| 20260506035506 | 6 | 315 | 1.6 | 4.8 | 0.00 | 0.00 | 0.00 | 53 | 1011.1 |
| 20260506035006 | 6 | 315 | 0.0 | 3.2 | 0.00 | 0.00 | 0.00 | 53 | 1011.1 |
| 20260506034006 | 6 | 294 | 1.6 | 9.7 | 0.00 | 0.00 | 0.00 | 52 | 1011.1 |
| 20260506033506 | 6 | 302 | 1.6 | 8.0 | 0.00 | 0.00 | 0.00 | 52 | 1011.0 |
| 20260506033007 | 6 | 300 | 1.6 | 8.0 | 0.00 | 0.00 | 0.00 | 52 | 1010.9 |
| 20260506032507 | 6 | 290 | 0.0 | 4.8 | 0.00 | 0.00 | 0.00 | 53 | 1010.8 |
| 20260506032006 | 6 | 290 | 1.6 | 4.8 | 0.00 | 0.00 | 0.00 | 52 | 1010.9 |
| 20260506031506 | 6 | 290 | 1.6 | 3.2 | 0.00 | 0.00 | 0.00 | 52 | 1010.9 |
| 20260506031007 | 6 | 290 | 1.6 | 3.2 | 0.00 | 0.00 | 0.00 | 52 | 1010.9 |
| 20260506030506 | 6 | 290 | 1.6 | 4.8 | 0.00 | 0.00 | 0.00 | 52 | 1010.7 |
| 20260506025007 | 7 | 290 | 0.0 | 0.0 | 0.00 | 0.00 | 0.00 | 51 | 1010.7 |
| 20260506024506 | 7 | 290 | 0.0 | 0.0 | 0.00 | 0.00 | 0.00 | 51 | 1010.6 |
| 20260506023006 | 7 | 290 | 0.0 | 0.0 | 0.00 | 0.00 | 0.00 | 50 | 1010.5 |
| 20260506022506 | 7 | 290 | 0.0 | 3.2 | 0.00 | 0.00 | 0.00 | 50 | 1010.3 |
| 20260506021506 | 7 | 290 | 3.2 | 4.8 | 0.00 | 0.00 | 0.00 | 47 | 1010.2 |
| 20260506021006 | 7 | 321 | 1.6 | 4.8 | 0.00 | 0.00 | 0.00 | 48 | 1010.3 |
| 20260506020506 | 7 | 321 | 0.0 | 4.8 | 0.00 | 0.00 | 0.00 | 48 | 1010.1 |
| 20260506015006 | 8 | 321 | 0.0 | 3.2 | 0.00 | 0.00 | 0.00 | 47 | 1010.0 |
| 20260506014506 | 8 | 321 | 0.0 | 8.0 | 0.00 | 0.00 | 0.00 | 47 | 1009.9 |
| 20260506014006 | 8 | 314 | 3.2 | 8.0 | 0.00 | 0.00 | 0.00 | 45 | 1009.7 |
| 20260506013506 | 8 | 284 | 1.6 | 4.8 | 0.00 | 0.00 | 0.00 | 46 | 1009.7 |
| 20260506013006 | 8 | 296 | 3.2 | 11.3 | 0.00 | 0.00 | 0.00 | 45 | 1009.6 |
| 20260506012506 | 8 | 305 | 3.2 | 8.0 | 0.00 | 0.00 | 0.00 | 45 | 1009.6 |
| 20260506012007 | 8 | 300 | 3.2 | 11.3 | 0.00 | 0.00 | 0.00 | 45 | 1009.6 |
| 20260506011506 | 8 | 310 | 3.2 | 11.3 | 0.00 | 0.00 | 0.00 | 44 | 1009.6 |
| 20260506011006 | 8 | 294 | 1.6 | 4.8 | 0.00 | 0.00 | 0.00 | 44 | 1009.6 |
| 20260506010506 | 8 | 293 | 4.8 | 14.5 | 0.00 | 0.00 | 0.00 | 45 | 1009.5 |
| 20260506005506 | 8 | 286 | 3.2 | 12.9 | 0.00 | 0.00 | 0.00 | 44 | 1009.4 |
| 20260506005006 | 8 | 301 | 4.8 | 8.0 | 0.00 | 0.00 | 0.00 | 44 | 1009.3 |
| 20260506004506 | 8 | 306 | 3.2 | 4.8 | 0.00 | 0.00 | 0.00 | 44 | 1009.2 |
| 20260506004006 | 8 | 302 | 3.2 | 8.0 | 0.00 | 0.00 | 0.00 | 44 | 1009.2 |
| 20260506003008 | 8 | 309 | 0.0 | 3.2 | 0.00 | 0.00 | 0.00 | 45 | 1009.1 |
| 20260506002006 | 8 | 309 | 1.6 | 4.8 | 0.00 | 0.00 | 0.00 | 43 | 1009.0 |
| 20260506001506 | 9 | 295 | 1.6 | 4.8 | 0.00 | 0.00 | 0.00 | 43 | 1009.0 |
| 20260506001007 | 9 | 308 | 3.2 | 8.0 | 0.00 | 0.00 | 0.00 | 44 | 1009.0 |
| 20260506000506 | 9 | 300 | 3.2 | 12.9 | 0.00 | 0.00 | 0.00 | 42 | 1008.9 |
| 20260506000006 | 9 | 272 | 1.6 | 11.3 | 0.00 | 0.00 | 0.00 | 43 | 1009.0 |
| 20260505233006 | 10 | 304 | 1.6 | 4.8 | 0.00 | 0.00 | 0.00 | 43 | 1008.9 |
| 20260505232506 | 10 | 313 | 4.8 | 14.5 | 0.00 | 0.00 | 0.00 | 42 | 1008.9 |
| 20260505232006 | 10 | 277 | 4.8 | 16.1 | 0.00 | 0.00 | 0.00 | 44 | 1008.9 |
| 20260505231506 | 9 | 237 | 3.2 | 8.0 | 0.00 | 0.00 | 0.00 | 42 | 1008.8 |
| 20260505231006 | 10 | 254 | 4.8 | 9.7 | 0.00 | 0.00 | 0.00 | 43 | 1008.9 |
| 20260505230506 | 10 | 296 | 3.2 | 11.3 | 0.00 | 0.00 | 0.00 | 44 | 1008.8 |
| 20260505230007 | 10 | 286 | 4.8 | 12.9 | 0.00 | 0.00 | 0.00 | 43 | 1008.8 |
| 20260505225006 | 10 | 315 | 3.2 | 11.3 | 0.00 | 0.00 | 0.00 | 43 | 1008.9 |
| 20260505224006 | 10 | 271 | 4.8 | 14.5 | 0.00 | 0.00 | 0.00 | 42 | 1009.0 |
| 20260505223506 | 10 | 262 | 4.8 | 11.3 | 0.00 | 0.00 | 0.00 | 42 | 1009.0 |
| 20260505223006 | 10 | 289 | 3.2 | 11.3 | 0.00 | 0.00 | 0.00 | 43 | 1008.8 |
| 20260505222506 | 10 | 279 | 4.8 | 12.9 | 0.00 | 0.00 | 0.00 | 42 | 1008.9 |
| 20260505222006 | 10 | 237 | 3.2 | 11.3 | 0.00 | 0.00 | 0.00 | 42 | 1008.8 |
| 20260505221506 | 10 | 283 | 4.8 | 14.5 | 0.00 | 0.00 | 0.00 | 43 | 1008.9 |
| 20260505221006 | 10 | 294 | 3.2 | 12.9 | 0.00 | 0.00 | 0.00 | 44 | 1008.8 |
| 20260505220506 | 10 | 283 | 6.4 | 14.5 | 0.00 | 0.00 | 0.00 | 41 | 1008.8 |
| 20260505215006 | 10 | 301 | 3.2 | 16.1 | 0.00 | 0.00 | 0.00 | 42 | 1008.8 |
| 20260505214506 | 10 | 303 | 4.8 | 16.1 | 0.00 | 0.00 | 0.00 | 41 | 1008.8 |
| 20260505214006 | 10 | 296 | 4.8 | 16.1 | 0.00 | 0.00 | 0.00 | 41 | 1008.9 |
| 20260505213506 | 10 | 245 | 3.2 | 9.7 | 0.00 | 0.00 | 0.00 | 40 | 1008.9 |
| 20260505213006 | 11 | 259 | 4.8 | 19.3 | 0.00 | 0.00 | 0.00 | 39 | 1008.9 |
| 20260505212506 | 11 | 205 | 4.8 | 19.3 | 0.00 | 0.00 | 0.00 | 38 | 1008.9 |
| 20260505211506 | 11 | 218 | 4.8 | 12.9 | 0.00 | 0.00 | 0.00 | 40 | 1008.9 |
| 20260505210506 | 10 | 299 | 8.0 | 19.3 | 0.00 | 0.00 | 0.00 | 41 | 1008.9 |
| 20260505210006 | 10 | 289 | 6.4 | 14.5 | 0.00 | 0.00 | 0.00 | 42 | 1008.9 |
| 20260505205506 | 10 | 299 | 3.2 | 14.5 | 0.00 | 0.00 | 0.00 | 42 | 1009.0 |
| 20260505205006 | 10 | 290 | 4.8 | 12.9 | 0.00 | 0.00 | 0.00 | 45 | 1009.1 |
| 20260505204505 | 10 | 321 | 3.2 | 8.0 | 0.00 | 0.00 | 0.00 | 42 | 1009.1 |
| 20260505204007 | 10 | 288 | 4.8 | 16.1 | 0.00 | 0.00 | 0.00 | 43 | 1009.0 |
| 20260505203506 | 10 | 290 | 6.4 | 19.3 | 0.00 | 0.00 | 0.00 | 41 | 1009.1 |
| 20260505203006 | 11 | 184 | 4.8 | 11.3 | 0.00 | 0.00 | 0.00 | 41 | 1009.1 |
| 20260505202506 | 10 | 273 | 3.2 | 9.7 | 0.00 | 0.00 | 0.00 | 42 | 1009.2 |
| 20260505201006 | 10 | 238 | 3.2 | 14.5 | 0.00 | 0.00 | 0.00 | 43 | 1009.3 |
| 20260505200506 | 10 | 272 | 3.2 | 14.5 | 0.00 | 0.00 | 0.00 | 42 | 1009.2 |
| 20260505200005 | 10 | 307 | 3.2 | 12.9 | 0.00 | 0.00 | 0.00 | 43 | 1009.3 |
| 20260505195505 | 10 | 280 | 4.8 | 14.5 | 0.00 | 0.00 | 0.00 | 43 | 1009.2 |
| 20260505195006 | 10 | 291 | 4.8 | 12.9 | 0.00 | 0.00 | 0.00 | 42 | 1009.3 |
| 20260505194506 | 10 | 302 | 4.8 | 20.9 | 0.00 | 0.00 | 0.00 | 40 | 1009.3 |
| 20260505194006 | 10 | 239 | 6.4 | 20.9 | 0.00 | 0.00 | 0.00 | 40 | 1009.3 |
| 20260505193007 | 10 | 212 | 3.2 | 11.3 | 0.00 | 0.00 | 0.00 | 38 | 1009.3 |
| 20260505192506 | 10 | 243 | 4.8 | 16.1 | 0.00 | 0.00 | 0.00 | 38 | 1009.5 |
| 20260505192006 | 10 | 250 | 3.2 | 12.9 | 0.00 | 0.00 | 0.00 | 41 | 1009.5 |
| 20260505191505 | 10 | 245 | 4.8 | 12.9 | 0.00 | 0.00 | 0.00 | 39 | 1009.4 |
| 20260505191006 | 10 | 318 | 3.2 | 11.3 | 0.00 | 0.00 | 0.00 | 43 | 1009.4 |
| 20260505190006 | 10 | 230 | 3.2 | 16.1 | 0.00 | 0.00 | 0.00 | 41 | 1009.5 |
| 20260505185506 | 10 | 291 | 4.8 | 12.9 | 0.00 | 0.00 | 0.00 | 40 | 1009.5 |
| 20260505185006 | 10 | 221 | 4.8 | 8.0 | 0.00 | 0.00 | 0.00 | 41 | 1009.5 |
| 20260505184506 | 10 | 237 | 3.2 | 12.9 | 0.00 | 0.00 | 0.00 | 43 | 1009.4 |
| 20260505184006 | 9 | 302 | 8.0 | 16.1 | 0.00 | 0.00 | 0.00 | 43 | 1009.5 |
| 20260505183506 | 9 | 226 | 6.4 | 20.9 | 0.00 | 0.00 | 0.00 | 41 | 1009.5 |
| 20260505183007 | 9 | 270 | 4.8 | 14.5 | 0.00 | 0.00 | 0.00 | 43 | 1009.3 |
| 20260505182506 | 9 | 262 | 3.2 | 12.9 | 0.00 | 0.00 | 0.00 | 43 | 1009.4 |
| 20260505182006 | 9 | 305 | 6.4 | 12.9 | 0.00 | 0.00 | 0.00 | 43 | 1009.3 |
| 20260505181006 | 9 | 285 | 4.8 | 14.5 | 0.00 | 0.00 | 0.00 | 41 | 1009.2 |
| 20260505180506 | 10 | 299 | 6.4 | 19.3 | 0.00 | 0.00 | 0.00 | 41 | 1009.2 |
| 20260505180006 | 10 | 253 | 3.2 | 9.7 | 0.00 | 0.00 | 0.00 | 40 | 1009.2 |
| 20260505175506 | 10 | 291 | 3.2 | 9.7 | 0.00 | 0.00 | 0.00 | 40 | 1009.1 |
| 20260505174506 | 9 | 241 | 4.8 | 14.5 | 0.00 | 0.00 | 0.00 | 40 | 1009.1 |
| 20260505174006 | 10 | 299 | 4.8 | 19.3 | 0.00 | 0.00 | 0.00 | 40 | 1009.0 |
| 20260505173506 | 10 | 233 | 4.8 | 14.5 | 0.00 | 0.00 | 0.00 | 41 | 1009.1 |
| 20260505173006 | 9 | 229 | 4.8 | 19.3 | 0.00 | 0.00 | 0.00 | 39 | 1009.0 |
| 20260505172506 | 9 | 260 | 3.2 | 12.9 | 0.00 | 0.00 | 0.00 | 39 | 1009.1 |
| 20260505171506 | 9 | 254 | 3.2 | 11.3 | 0.00 | 0.00 | 0.00 | 40 | 1009.1 |
| 20260505170506 | 10 | 264 | 1.6 | 12.9 | 0.00 | 0.00 | 0.00 | 40 | 1009.1 |
| 20260505170006 | 10 | 258 | 4.8 | 12.9 | 0.00 | 0.00 | 0.00 | 42 | 1009.1 |
| 20260505165506 | 9 | 290 | 4.8 | 12.9 | 0.00 | 0.00 | 0.00 | 45 | 1009.1 |
| 20260505165006 | 8 | 263 | 3.2 | 16.1 | 0.00 | 0.00 | 0.00 | 41 | 1009.2 |
| 20260505164506 | 8 | 257 | 3.2 | 14.5 | 0.00 | 0.00 | 0.00 | 41 | 1009.1 |
| 20260505164006 | 9 | 288 | 4.8 | 16.1 | 0.00 | 0.00 | 0.00 | 42 | 1009.2 |
| 20260505163506 | 9 | 305 | 8.0 | 19.3 | 0.00 | 0.00 | 0.00 | 42 | 1009.1 |
| 20260505163008 | 9 | 276 | 3.2 | 12.9 | 0.00 | 0.00 | 0.00 | 45 | 1009.2 |
| 20260505161506 | 9 | 250 | 3.2 | 9.7 | 0.00 | 0.00 | 0.00 | 41 | 1009.4 |
| 20260505161006 | 9 | 275 | 4.8 | 19.3 | 0.00 | 0.00 | 0.00 | 42 | 1009.4 |
| 20260505160506 | 9 | 305 | 8.0 | 14.5 | 0.00 | 0.00 | 0.00 | 44 | 1009.4 |
| 20260505152006 | 8 | 257 | 3.2 | 4.8 | 0.00 | 0.00 | 0.00 | 47 | 1009.0 |
| 20260505151506 | 8 | 306 | 1.6 | 11.3 | 0.00 | 0.00 | 0.00 | 47 | 1009.0 |
| 20260505151006 | 8 | 302 | 3.2 | 8.0 | 0.00 | 0.00 | 0.00 | 46 | 1009.0 |
| 20260505150506 | 8 | 288 | 1.6 | 11.3 | 0.00 | 0.00 | 0.00 | 51 | 1008.9 |
| 20260505140505 | 7 | 303 | 3.2 | 8.0 | 0.00 | 0.00 | 0.00 | 55 | 1008.8 |
| 20260505125006 | 5 | 304 | 1.6 | 8.0 | 0.00 | 0.00 | 0.00 | 67 | 1008.2 |
| 20260505124506 | 4 | 304 | 1.6 | 8.0 | 0.00 | 0.00 | 0.00 | 68 | 1008.1 |
| 20260505124006 | 4 | 293 | 1.6 | 4.8 | 0.00 | 0.00 | 0.00 | 68 | 1008.1 |
| 20260505123505 | 4 | 274 | 0.0 | 4.8 | 0.00 | 0.00 | 0.00 | 70 | 1008.0 |
| 20260505123006 | 3 | 311 | 1.6 | 4.8 | 0.00 | 0.00 | 0.00 | 70 | 1008.0 |
| 20260505122505 | 3 | 307 | 3.2 | 4.8 | 0.00 | 0.00 | 0.00 | 70 | 1007.9 |
| 20260505122006 | 3 | 307 | 3.2 | 4.8 | 0.00 | 0.00 | 0.00 | 70 | 1007.8 |
| 20260505121506 | 3 | 307 | 1.6 | 4.8 | 0.00 | 0.00 | 0.00 | 71 | 1007.7 |
| 20260505121006 | 3 | 272 | 1.6 | 4.8 | 0.00 | 0.00 | 0.00 | 72 | 1007.7 |
| 20260505120506 | 2 | 272 | 1.6 | 4.8 | 0.00 | 0.00 | 0.00 | 73 | 1007.6 |
| 20260505120006 | 2 | 272 | 0.0 | 4.8 | 0.00 | 0.00 | 0.00 | 74 | 1007.5 |
| 20260505115506 | 2 | 272 | 0.0 | 4.8 | 0.00 | 0.00 | 0.00 | 73 | 1007.4 |
| 20260505114006 | 2 | 272 | 0.0 | 3.2 | 0.00 | 0.00 | 0.00 | 73 | 1007.1 |
| 20260505113506 | 2 | 272 | 0.0 | 3.2 | 0.00 | 0.00 | 0.00 | 73 | 1007.0 |
| 20260505113006 | 2 | 272 | 1.6 | 3.2 | 0.00 | 0.00 | 0.00 | 72 | 1006.8 |
| 20260505112506 | 2 | 272 | 0.0 | 0.0 | 0.00 | 0.00 | 0.00 | 72 | 1006.7 |
| 20260505112006 | 2 | 272 | 0.0 | 1.6 | 0.00 | 0.00 | 0.00 | 72 | 1006.6 |
| 20260505111505 | 2 | 272 | 0.0 | 0.0 | 0.00 | 0.00 | 0.00 | 72 | 1006.5 |
| 20260505111006 | 2 | 272 | 0.0 | 0.0 | 0.00 | 0.00 | 0.00 | 71 | 1006.3 |
| 20260505110506 | 2 | 272 | 0.0 | 0.0 | 0.00 | 0.00 | 0.00 | 71 | 1006.3 |
| 20260505102006 | 2 | 272 | 0.0 | 3.2 | 0.00 | 0.00 | 0.00 | 70 | 1005.8 |
| 20260505101506 | 2 | 272 | 0.0 | 0.0 | 0.00 | 0.00 | 0.00 | 70 | 1005.8 |
| 20260505101006 | 3 | 272 | 0.0 | 0.0 | 0.00 | 0.00 | 0.00 | 70 | 1005.8 |
| 20260505095505 | 3 | 272 | 0.0 | 0.0 | 0.00 | 0.00 | 0.00 | 69 | 1005.8 |
| 20260505095006 | 3 | 272 | 0.0 | 1.6 | 0.00 | 0.00 | 0.00 | 68 | 1005.8 |
| 20260505094005 | 3 | 272 | 0.0 | 0.0 | 0.00 | 0.00 | 0.00 | 68 | 1005.8 |
| 20260505093506 | 3 | 272 | 0.0 | 1.6 | 0.00 | 0.00 | 0.00 | 68 | 1005.7 |
| 20260505092506 | 3 | 272 | 0.0 | 1.6 | 0.00 | 0.00 | 0.00 | 69 | 1005.7 |
| 20260505092006 | 3 | 272 | 0.0 | 0.0 | 0.00 | 0.00 | 0.00 | 69 | 1005.7 |
| 20260505091006 | 3 | 272 | 0.0 | 0.0 | 0.00 | 0.00 | 0.00 | 70 | 1005.6 |
| 20260505084006 | 3 | 272 | 0.0 | 0.0 | 0.00 | 0.00 | 0.00 | 64 | 1005.3 |
| 20260505083006 | 4 | 272 | 0.0 | 0.0 | 0.00 | 0.00 | 0.00 | 64 | 1005.1 |
| 20260505082505 | 4 | 272 | 0.0 | 4.8 | 0.00 | 0.00 | 0.00 | 64 | 1005.0 |
| 20260505082006 | 4 | 272 | 0.0 | 3.2 | 0.00 | 0.00 | 0.00 | 64 | 1004.8 |
| 20260505081506 | 4 | 272 | 0.0 | 3.2 | 0.00 | 0.00 | 0.00 | 63 | 1004.8 |
| 20260505081006 | 4 | 272 | 0.0 | 1.6 | 0.00 | 0.00 | 0.00 | 63 | 1004.8 |
| 20260505080506 | 4 | 272 | 0.0 | 1.6 | 0.00 | 0.00 | 0.00 | 63 | 1004.7 |
| 20260505080006 | 4 | 272 | 0.0 | 1.6 | 0.00 | 0.00 | 0.00 | 62 | 1004.7 |
| 20260505075506 | 4 | 272 | 0.0 | 1.6 | 0.00 | 0.00 | 0.00 | 62 | 1004.7 |
| 20260505075006 | 5 | 272 | 0.0 | 4.8 | 0.00 | 0.00 | 0.00 | 62 | 1004.7 |
| 20260505074505 | 5 | 272 | 0.0 | 1.6 | 0.00 | 0.00 | 0.00 | 62 | 1004.7 |
| 20260505074006 | 5 | 272 | 0.0 | 1.6 | 0.00 | 0.00 | 0.00 | 62 | 1004.6 |
| 20260505073506 | 5 | 272 | 0.0 | 1.6 | 0.00 | 0.00 | 0.00 | 63 | 1004.6 |
| 20260505073006 | 5 | 272 | 0.0 | 3.2 | 0.00 | 0.00 | 0.00 | 62 | 1004.7 |
| 20260505072506 | 5 | 272 | 0.0 | 3.2 | 0.00 | 0.00 | 0.00 | 60 | 1004.6 |
| 20260505072005 | 5 | 272 | 0.0 | 0.0 | 0.00 | 0.00 | 0.00 | 60 | 1004.6 |
| 20260505071506 | 5 | 272 | 0.0 | 3.2 | 0.00 | 0.00 | 0.00 | 60 | 1004.7 |
| 20260505071006 | 5 | 272 | 0.0 | 1.6 | 0.00 | 0.00 | 0.00 | 59 | 1004.6 |
| 20260505070506 | 5 | 272 | 0.0 | 1.6 | 0.00 | 0.00 | 0.00 | 59 | 1004.6 |
| 20260505065505 | 5 | 272 | 0.0 | 0.0 | 0.00 | 0.00 | 0.00 | 59 | 1004.5 |
| 20260505065005 | 5 | 272 | 0.0 | 3.2 | 0.00 | 0.00 | 0.00 | 59 | 1004.5 |
| 20260505064506 | 5 | 272 | 0.0 | 4.8 | 0.00 | 0.00 | 0.00 | 59 | 1004.6 |
| 20260505064006 | 5 | 284 | 0.0 | 3.2 | 0.00 | 0.00 | 0.00 | 59 | 1004.5 |
| 20260505063005 | 5 | 305 | 0.0 | 1.6 | 0.00 | 0.00 | 0.00 | 59 | 1004.5 |
| 20260505062505 | 5 | 305 | 0.0 | 1.6 | 0.00 | 0.00 | 0.00 | 58 | 1004.5 |
| 20260505062006 | 5 | 305 | 0.0 | 1.6 | 0.00 | 0.00 | 0.00 | 58 | 1004.5 |
| 20260505061005 | 6 | 305 | 0.0 | 0.0 | 0.00 | 0.00 | 0.00 | 57 | 1004.4 |
| 20260505060506 | 6 | 305 | 1.6 | 4.8 | 0.00 | 0.00 | 0.00 | 57 | 1004.4 |
| 20260505060006 | 6 | 305 | 1.6 | 4.8 | 0.00 | 0.00 | 0.00 | 56 | 1004.4 |
| 20260505055505 | 6 | 305 | 0.0 | 4.8 | 0.00 | 0.00 | 0.00 | 57 | 1004.4 |
| 20260505055005 | 6 | 305 | 0.0 | 4.8 | 0.00 | 0.00 | 0.00 | 56 | 1004.4 |
| 20260505054505 | 6 | 305 | 0.0 | 4.8 | 0.00 | 0.00 | 0.00 | 56 | 1004.4 |
| 20260505054005 | 6 | 305 | 1.6 | 4.8 | 0.00 | 0.00 | 0.00 | 56 | 1004.4 |
| 20260505053506 | 6 | 305 | 0.0 | 4.8 | 0.00 | 0.00 | 0.00 | 56 | 1004.3 |
| 20260505053006 | 6 | 256 | 0.0 | 1.6 | 0.00 | 0.00 | 0.00 | 55 | 1004.3 |